TimeAKDT,TemperatureF,Dew PointF,Humidity,Sea Level PressureIn,VisibilityMPH,Wind Direction,Wind SpeedMPH,Gust SpeedMPH,PrecipitationIn,Events,Conditions,WindDirDegrees,DateUTC
12:53 AM,32.0,27.0,82,29.91,10.0,Calm,Calm,-,N/A,,Mostly Cloudy,0,2012-09-30 08:53:00
1:53 AM,33.1,27.0,78,29.92,10.0,Calm,Calm,-,N/A,,Scattered Clouds,0,2012-09-30 09:53:00
2:53 AM,30.9,25.0,79,29.94,10.0,Calm,Calm,-,N/A,,Partly Cloudy,0,2012-09-30 10:53:00
3:53 AM,33.1,28.9,85,29.95,10.0,Calm,Calm,-,N/A,,Scattered Clouds,0,2012-09-30 11:53:00
4:53 AM,32.0,30.0,92,29.96,10.0,North,3.5,-,N/A,,Scattered Clouds,10,2012-09-30 12:53:00
5:11 AM,30.2,26.6,86,29.96,10.0,Calm,Calm,-,N/A,,Scattered Clouds,0,2012-09-30 13:11:00
5:39 AM,32.0,30.2,93,29.96,10.0,North,4.6,-,N/A,,Mostly Cloudy,10,2012-09-30 13:39:00
5:53 AM,33.1,30.9,92,29.97,10.0,NNE,3.5,-,N/A,,Mostly Cloudy,20,2012-09-30 13:53:00
6:53 AM,33.1,30.9,92,29.98,10.0,North,3.5,-,N/A,,Overcast,360,2012-09-30 14:53:00
7:53 AM,33.1,30.9,92,29.99,10.0,Calm,Calm,-,N/A,,Overcast,0,2012-09-30 15:53:00
8:53 AM,33.1,30.9,92,30.00,10.0,NNE,3.5,-,N/A,,Overcast,30,2012-09-30 16:53:00
8:59 AM,33.8,30.2,87,30.00,6.0,NE,3.5,-,N/A,,Overcast,40,2012-09-30 16:59:00
9:53 AM,33.1,30.9,92,30.01,1.0,North,5.8,-,N/A,,Overcast,360,2012-09-30 17:53:00
10:53 AM,34.0,30.9,89,30.02,1.0,NE,4.6,-,N/A,,Overcast,40,2012-09-30 18:53:00
11:40 AM,37.4,32.0,81,30.02,1.0,East,3.5,-,N/A,,Haze,80,2012-09-30 19:40:00
11:43 AM,37.4,32.0,81,30.02,8.0,ENE,3.5,-,N/A,,Mostly Cloudy,70,2012-09-30 19:43:00
11:53 AM,37.0,32.0,82,30.03,8.0,NE,4.6,-,N/A,,Scattered Clouds,50,2012-09-30 19:53:00
12:53 PM,39.9,30.0,68,30.03,10.0,Calm,Calm,-,N/A,,Mostly Cloudy,0,2012-09-30 20:53:00
1:53 PM,43.0,28.9,58,30.03,10.0,NNE,4.6,-,N/A,,Scattered Clouds,20,2012-09-30 21:53:00
2:53 PM,44.1,27.0,51,30.02,10.0,Calm,Calm,-,N/A,,Clear,0,2012-09-30 22:53:00
3:53 PM,45.0,26.1,48,30.02,10.0,ENE,3.5,-,N/A,,Partly Cloudy,60,2012-09-30 23:53:00
4:53 PM,45.0,26.1,48,30.02,10.0,Variable,3.5,-,N/A,,Clear,0,2012-10-01 00:53:00
5:53 PM,46.0,23.0,40,30.02,10.0,North,5.8,-,N/A,,Clear,350,2012-10-01 01:53:00
6:53 PM,45.0,24.1,44,30.02,10.0,NE,3.5,-,N/A,,Clear,50,2012-10-01 02:53:00
7:53 PM,42.1,28.0,58,30.02,10.0,Calm,Calm,-,N/A,,Clear,0,2012-10-01 03:53:00
8:53 PM,37.9,28.9,70,30.03,10.0,Calm,Calm,-,N/A,,Clear,0,2012-10-01 04:53:00
9:53 PM,36.0,27.0,70,30.05,10.0,Calm,Calm,-,N/A,,Clear,0,2012-10-01 05:53:00
10:53 PM,33.1,26.1,75,30.06,10.0,Calm,Calm,-,N/A,,Clear,0,2012-10-01 06:53:00
11:53 PM,30.0,26.1,85,30.08,10.0,ENE,3.5,-,N/A,,Clear,70,2012-10-01 07:53:00